This is the latest recevied weather packets stored in our database for station/object KI6SYE. If no packets are shown the sender has not sent any weather packets the latest 10 day(s).
| Time | Temp. | Humidity | Pressure | Rain* | Wind** | Luminosity | Snow |
|---|---|---|---|---|---|---|---|
| 1777820923 | 15.56° C | 81% | 1014 hPa | 0 mm | - | 70 W/m² | - |
| 1777820619 | 15.56° C | 81% | 1013.9 hPa | 0 mm | - | 65 W/m² | - |
| 1777820316 | 15.56° C | 80% | 1013.6 hPa | 0 mm | - | 62 W/m² | - |
| 1777820014 | 15.56° C | 80% | 1013.6 hPa | 0 mm | - | 58 W/m² | - |
| 1777819710 | 15.56° C | 80% | 1013.7 hPa | 0 mm | - | 51 W/m² | - |
| 1777819409 | 15.56° C | 80% | 1013.7 hPa | 0 mm | - | 42 W/m² | - |
| 1777819105 | 15.56° C | 81% | 1013.6 hPa | 0 mm | - | 45 W/m² | - |
| 1777818802 | 15.56° C | 81% | 1013.6 hPa | 0 mm | - | 42 W/m² | - |
| 1777818498 | 15.56° C | 81% | 1013.5 hPa | 0 mm | - | 43 W/m² | - |
| 1777818195 | 15.56° C | 81% | 1013.4 hPa | 0 mm | - | 45 W/m² | - |
| 1777817892 | 15.56° C | 84% | 1013.3 hPa | 0 mm | - | 38 W/m² | - |
| 1777817589 | 15° C | 83% | 1013.3 hPa | 0 mm | - | 36 W/m² | - |
| 1777817286 | 15° C | 83% | 1013 hPa | 0 mm | - | 39 W/m² | - |
| 1777816983 | 15° C | 83% | 1013.1 hPa | 0 mm | - | 36 W/m² | - |
| 1777816679 | 15° C | 84% | 1012.9 hPa | 0 mm | - | 32 W/m² | - |
| 1777816376 | 15° C | 84% | 1012.9 hPa | 0 mm | - | 29 W/m² | - |
| 1777816074 | 15° C | 84% | 1013.1 hPa | 0 mm | - | 23 W/m² | - |
| 1777815771 | 15° C | 84% | 1012.9 hPa | 0 mm | - | 18 W/m² | - |
| 1777815469 | 15° C | 84% | 1012.9 hPa | 0 mm | - | 14 W/m² | - |
| 1777815166 | 15° C | 84% | 1012.7 hPa | 0 mm | - | 11 W/m² | - |
| 1777814862 | 15° C | 84% | 1012.9 hPa | 0 mm | - | 9 W/m² | - |
| 1777814558 | 15° C | 84% | 1013 hPa | 0 mm | - | 6 W/m² | - |
| 1777814256 | 15° C | 84% | 1012.9 hPa | 0 mm | - | 4 W/m² | - |
| 1777813953 | 15° C | 84% | 1012.7 hPa | 0 mm | - | 3 W/m² | - |
| 1777813650 | 15° C | 84% | 1012.8 hPa | 0 mm | - | 2 W/m² | - |
* Rain latest hour (hover to see other rain measurements)
** Current wind speed in m/s (hover to see current wind gust speed)